NOAA 16 DEB, 41052

Orbit data source: Space-Track

NOAA 16 DEB, 41052 is space debris in SSO originally from a launch on Thu, 21 Sep 2000 UTC launched from the Air Force Western Test Range (AFWTR). Debris objects in space refer to the collection of defunct objects orbiting the Earth. Examples of debris include non-operational satellites, rocket bodies, and fragments generated from explosions, collisions, or faulty payload assembly.

Loading next visibility...
Identifier
41052, 2000-055K
Orbit
SSO
Country
Flag of USUS
Related business
Manufacturer
Unknown
Mission
Spacecraft
Bus & Motor
Unknown
Mass
Unknown
Launch date (UTC)
2000-09-21 (26 years ago)
Launch vehicle
Unknown
Launch site
Air Force Western Test Range (AFWTR)
Object type
Payload
Rocket body
Debris
Shape & HBR
Unknown shape, 0.1 m
Radar Cross Section
Medium (>0.1 m² and <1 m²)

Expand to show TLE details & history
Last TLE update: 15 hours ago

TLE from 15 hours ago
0 NOAA 16 DEB
1 41052U 00055K   26262.99108437  .00000360  00000-0  20715-3 0  9998
2 41052  98.6042 270.0282 0161148 281.0763  77.2324 14.08842207555053
Epoch: 2026-09-19T23:47Z
TLE epoch observation values (Epoch: 2026-09-19T23:47:09.689Z)
Latitude
0.00005°
Longitude
-85.65386°
Altitude
842.244 km
Speed
7.444 km/s
True Right ascension
18h 00m 06s
True Declination
0° 00' 00"
Sunlit
Object was in daylight at epoch
Visualization orbit readout
Latitude
Unknown
Longitude
Unknown
Altitude
Unknown
Speed
Unknown
Apparent Right ascension
Unknown
Apparent Declination
Unknown
Sunlit
N/A
Visualization observer readout
Local Sidereal Time
07:58:52
Azimuth
Unknown
Elevation
Unknown
Doppler factor
Unknown
Orbital elements
Apogee altitude
977.153 km
Perigee altitude
743.855 km
Semi-major axis
7,238.641 km
Eccentricity
0.01611
Inclination
98.6042°
RAAN
270.0282°
Arg. of periapsis
281.0763°
True anomaly
79.04111°
Mean anomaly
77.2324°
Eccentric anomaly
78.13599°
Mean motion
3.52418 °/min
Orbital period
102.15 mins
BSTAR
0.00020715
Loading maneuver chart data...
Computing Atmospheric mass density...

Documentation

Showing up to 5 results
|